This is the latest recevied weather packets stored in our database for station/object SQ7IQO. If no packets are shown the sender has not sent any weather packets the latest 10 day(s).
| Time | Temp. | Humidity | Pressure | Rain* | Wind** | Luminosity | Snow |
|---|---|---|---|---|---|---|---|
| 1787830360 | 23.89° C | 43% | 1024.3 hPa | 0 mm | 0.89 m/s, ° | - | - |
| 1787830300 | 24.44° C | 48% | 1038.6 hPa | 0 mm | 0.89 m/s, ° | - | - |
| 1787830240 | 24.44° C | 47% | 1024.3 hPa | 0 mm | 0 m/s | - | - |
| 1787830180 | 24.44° C | 47% | 1024.2 hPa | 0 mm | 0 m/s | - | - |
| 1787830120 | 24.44° C | 44% | 1024.3 hPa | 0 mm | 0 m/s | - | - |
| 1787830060 | 24.44° C | 47% | 1024.3 hPa | 0 mm | 0.45 m/s, ° | - | - |
| 1787830000 | 24.44° C | 42% | 1024.3 hPa | 0 mm | 0 m/s | - | - |
| 1787829940 | 23.89° C | 43% | 1024.3 hPa | 0 mm | 0 m/s | - | - |
| 1787829880 | 23.89° C | 44% | 1024.3 hPa | 0 mm | 0 m/s | - | - |
| 1787829820 | 24.44° C | 43% | 1024.4 hPa | 0 mm | 0.89 m/s, ° | - | - |
| 1787829760 | 25° C | 44% | 1024.3 hPa | 0 mm | 0 m/s | - | - |
| 1787829700 | 24.44° C | 44% | 1024.3 hPa | 0 mm | 0 m/s | - | - |
| 1787829640 | 23.89° C | 42% | 1024.3 hPa | 0 mm | 0 m/s | - | - |
| 1787829580 | 23.33° C | 43% | 1024.3 hPa | 0 mm | 0 m/s | - | - |
| 1787829520 | 22.78° C | 45% | 1024.3 hPa | 0 mm | 0 m/s | - | - |
| 1787829460 | 22.78° C | 47% | 1024.4 hPa | 0 mm | 0 m/s | - | - |
| 1787829400 | 22.78° C | 47% | 1024.3 hPa | 0 mm | 0 m/s | - | - |
| 1787829340 | 23.33° C | 45% | 1024.3 hPa | 0 mm | 0 m/s | - | - |
| 1787829280 | 23.33° C | 43% | 1024.3 hPa | 0 mm | 0 m/s | - | - |
| 1787829220 | 23.89° C | 41% | 1024.3 hPa | 0 mm | 0 m/s | - | - |
| 1787829160 | 24.44° C | 44% | 1024.3 hPa | 0 mm | 0 m/s | - | - |
| 1787829100 | 23.89° C | 44% | 1024.3 hPa | 0 mm | 0 m/s | - | - |
| 1787829040 | 23.33° C | 44% | 1024.3 hPa | 0 mm | 0 m/s | - | - |
| 1787828980 | 23.33° C | 42% | 1024.3 hPa | 0 mm | 0.45 m/s, ° | - | - |
| 1787828920 | 23.89° C | 48% | 1024.4 hPa | 0 mm | 0.45 m/s, ° | - | - |
* Rain latest hour (hover to see other rain measurements)
** Current wind speed in m/s (hover to see current wind gust speed)